This is the latest recevied weather packets stored in our database for station/object DL0BB-10. If no packets are shown the sender has not sent any weather packets the latest 10 day(s).
| Time | Temp. | Humidity | Pressure | Rain* | Wind** | Luminosity | Snow |
|---|---|---|---|---|---|---|---|
| 1788035381 | 26.67° C | 40% | 1015 hPa | - | - | - | - |
| 1788034481 | 27.22° C | 39% | 1015 hPa | - | - | - | - |
| 1788033581 | 26.67° C | 40% | 1015 hPa | - | - | - | - |
| 1788032680 | 26.67° C | 41% | 1015.1 hPa | - | - | - | - |
| 1788031780 | 26.67° C | 40% | 1014.9 hPa | - | - | - | - |
| 1788030880 | 27.22° C | 39% | 1015.1 hPa | - | - | - | - |
| 1788029980 | 26.67° C | 41% | 1015 hPa | - | - | - | - |
| 1788029080 | 26.67° C | 41% | 1014.9 hPa | - | - | - | - |
| 1788028179 | 27.22° C | 40% | 1014.8 hPa | - | - | - | - |
| 1788027279 | 27.78° C | 39% | 1014.8 hPa | - | - | - | - |
| 1788026379 | 26.67° C | 41% | 1014.9 hPa | - | - | - | - |
| 1788025479 | 26.67° C | 41% | 1014.9 hPa | - | - | - | - |
| 1788024579 | 27.22° C | 40% | 1014.8 hPa | - | - | - | - |
| 1788023679 | 27.78° C | 39% | 1014.8 hPa | - | - | - | - |
| 1788022779 | 26.67° C | 41% | 1014.9 hPa | - | - | - | - |
| 1788021878 | 27.22° C | 41% | 1014.8 hPa | - | - | - | - |
| 1788020978 | 27.22° C | 40% | 1014.8 hPa | - | - | - | - |
| 1788020078 | 27.22° C | 40% | 1014.9 hPa | - | - | - | - |
| 1788019178 | 26.67° C | 41% | 1014.9 hPa | - | - | - | - |
| 1788018278 | 27.22° C | 41% | 1014.8 hPa | - | - | - | - |
| 1788017378 | 27.78° C | 39% | 1015.1 hPa | - | - | - | - |
| 1788016478 | 27.22° C | 41% | 1015.3 hPa | - | - | - | - |
| 1788015577 | 26.67° C | 41% | 1015.4 hPa | - | - | - | - |
| 1788014681 | 27.22° C | 41% | 1015.4 hPa | - | - | - | - |
| 1788013781 | 27.78° C | 39% | 1015.5 hPa | - | - | - | - |
* Rain since midnight (hover to see other rain measurements)
** Current wind speed in m/s (hover to see current wind gust speed)